Regional Weather Roundup
Issued by NWS

Home | Current Version | Previous Version | Graphics & Text | Print | Product List | Glossary On
Versions: 1 2 3 4 5 6 7 8 9 10 11 12 13 14 15 16 17 18 19 20 21 22 23 24 25 26 27 28 29 30 31 32 33 34 35 36 37 38 39 40 41 42 43 44 45 46 47 48 49 50
487
ASUS43 KLSX 220457
RWRMO

WEATHER SUMMARY FOR MISSOURI
NATIONAL WEATHER SERVICE SPRINGFIELD MO
1100 PM CST SAT JAN 21 2017

NOTE: "FAIR" INDICATES FEW OR NO CLOUDS BELOW 12,000 FEET WITH NO
       SIGNIFICANT WEATHER AND/OR OBSTRUCTIONS TO VISIBILITY.
       CURRENT SKY AND/OR WEATHER CONDITIONS ARE NOT AVAILABLE FOR
       CHILLICOTHE AND FARMINGTON.

MOZ001>031-035>038-043-044-053-054-220600-
...NORTHERN AND WESTERN MISSOURI...

CITY           SKY/WX    TMP DP  RH WIND       PRES   REMARKS
KANSAS CTY INT CLOUDY    47  42  83 E5        29.53R
LEE`S SUMMIT   LGT RAIN  47  45  93 E8        29.53R
ST JOSEPH      CLOUDY    42  42 100 N5        29.55R
CHILLICOTHE      N/A     43  42  97 CALM      29.56R

$$
MOZ066>068-077>081-088>096-101>105-220600-
...SOUTHWEST MISSOURI...

CITY           SKY/WX    TMP DP  RH WIND       PRES   REMARKS
SPRINGFIELD    LGT RAIN  53  48  83 E10       29.46S
JOPLIN         CLOUDY    54  47  77 MISG      29.44S

$$
MOZ032>034-039>042-045>050-055>058-069>072-220600-
...CENTRAL MISSOURI...

CITY           SKY/WX    TMP DP  RH WIND       PRES   REMARKS
COLUMBIA       NOT AVBL
JEFFERSON CITY CLOUDY    57  38  48 E9        29.51F
ROLLA          LGT RAIN  54  41  61 E10       29.51S
SEDALIA        LGT RAIN  50  43  77 N5        29.55R
WARRENSBURG    LGT RAIN  46  43  87 N6        29.52F

$$
MOZ051-052-059>065-220600-
...EAST CENTRAL MISSOURI...

CITY           SKY/WX    TMP DP  RH WIND       PRES   REMARKS
ST LOUIS INTL  CLOUDY    53  40  61 NE5       29.56S

$$
MOZ072>076-082>087-097>100-106>115-220600-
...SOUTH CENTRAL AND SOUTHEAST MISSOURI...

CITY           SKY/WX    TMP DP  RH WIND       PRES   REMARKS
CAPE GIRARDEAU PTCLDY    53  52  96 SE3       29.54F
POPLAR BLUFF   PTCLDY    51  51 100 NE5       29.50F
WEST PLAINS    CLOUDY    57  54  89 SE6       29.51F

$$



USA.gov is the U.S. government's official web portal to all federal, state and local government web resources and services.